[[{"header":{"parameterUnit":"m.s-1","parameterCategory":1,"la1":30.2991,"la2":30.254,"lo1":-89.0895,"lo2":-89.0444,"dy":0.0017,"dx":0.0017,"nx":28,"ny":28,"refTime":"2025-01-25T03:00:00:Z","depth":0,"parameterNumber":2,"parameterNumberName":"U-component_of_WINDS"},"data":[0,0,0,0,0,0,0,0,0,0,0,0,0,0,0,0,0,0,0,0,0,0,0,0,0,0,0,0,0,0,0,0,0,0,0,0,0,0,0,0,0,0,0,0,0,0,0,0,0,0,0,0,0,0,0,0,0,0,-3.7969,-3.797,0,-3.8023,-3.8023,-3.8024,-3.7903,-3.7899,-3.7895,-3.7892,-3.7943,-3.7948,-3.7953,0,0,0,0,0,0,0,0,0,0,0,0,0,-3.7759,-3.7763,-3.7969,-3.797,-3.797,-3.8022,-3.8023,-3.8024,-3.7904,-3.7899,-3.7894,-3.789,-3.7942,-3.7948,-3.7954,0,0,0,0,0,0,0,0,0,0,0,0,0,-3.7835,-3.7765,-3.7969,-3.7917,-3.7913,-3.8022,-3.8023,-3.8024,-3.7905,-3.7899,-3.7893,-3.7888,-3.794,-3.7947,-3.7954,-3.8116,0,0,-3.7977,-3.798,0,0,0,0,0,0,0,0,-3.7831,-3.7843,-3.7924,-3.7921,-3.7916,-3.795,-3.7968,-3.8055,-3.7906,-3.7908,-3.7891,-3.7885,-3.795,-3.7956,-3.7979,-3.8119,-3.8121,-3.7978,-3.7982,-3.7986,-3.7988,0,0,0,0,0,0,0,-3.7826,-3.784,-3.799,-3.7925,-3.792,-3.7889,-3.7894,-3.7984,-3.7961,-3.7907,-3.7898,-3.7907,-3.7947,-3.7972,-3.7979,-3.8122,-3.7978,-3.7984,-3.7989,-3.7992,-3.8394,-3.84,0,0,0,0,0,0,-3.7828,-3.7836,-3.7988,-3.7992,-3.7858,-3.7898,-3.7903,-3.7945,-3.7959,-3.7956,-3.7911,-3.7901,-3.7962,-3.7971,-3.7981,-3.8169,-3.7985,-3.7992,-3.7997,-3.8388,-3.8395,-3.8402,0,0,0,0,0,0,-3.7824,-3.7842,-3.7986,-3.7912,-3.7928,-3.7908,-3.7956,-3.7949,-3.7974,-3.7963,-3.7957,-3.7942,-3.7958,-3.797,-3.8083,-3.8169,-3.7996,-3.8003,-3.838,-3.839,-3.8399,-3.8548,0,0,0,0,0,0,-3.7818,-3.7842,-3.7904,-3.7914,-3.7932,-3.8089,-3.7961,-3.7954,-3.7988,-3.7974,-3.799,-3.7987,-3.7954,-3.8073,-3.809,-3.8176,-3.8008,-3.8373,-3.8385,-3.8396,-3.8535,-3.8561,-3.8584,0,0,0,0,0,-3.7811,-3.7944,-3.7908,-3.7927,-3.801,-3.8095,-3.8105,-3.8066,-3.7995,-3.8057,-3.8049,-3.7986,-3.8157,-3.8085,-3.8104,-3.8193,-3.8367,-3.8381,-3.8395,-3.8524,-3.8556,-3.8583,0,0,0,0,0,0,-3.7943,-3.7944,-3.7904,-3.8044,-3.8071,-3.8074,-3.815,-3.8101,-3.8147,-3.8132,-3.8081,-3.8085,-3.8207,-3.8212,-3.8131,-3.835,-3.825,-3.8268,-3.8342,-3.8372,-3.8396,-3.8391,-3.8015,0,0,0,0,0,-3.7989,-3.8059,-3.8056,-3.8179,-3.8195,-3.8171,-3.8206,-3.8174,-3.8198,-3.8209,-3.8209,-3.8234,-3.8293,-3.8333,-3.8387,-3.8536,-3.8536,-3.8607,-3.8631,-3.8651,-3.8667,-3.8743,-3.8774,-3.8448,-3.8448,-3.8447,0,0,-3.8084,-3.8093,-3.814,-3.8206,-3.8223,-3.8294,-3.8181,-3.8262,-3.8314,-3.822,-3.8326,-3.8328,-3.8353,-3.8484,-3.8542,-3.8491,-3.8757,-3.8669,-3.8685,-3.8689,-3.8761,-3.8792,-3.8819,-3.8457,-3.8456,-3.8454,0,0,-3.8292,-3.8308,-3.8411,-3.843,-3.8457,-3.844,-3.8465,-3.8476,-3.8474,-3.858,-3.851,-3.8571,-3.8675,-3.8694,-3.8718,-3.8934,-3.8877,-3.8953,-3.9078,-3.9154,-3.9179,-3.9202,-3.9276,-3.9304,-3.897,-3.897,-3.897,0,-3.8406,-3.8513,-3.8471,-3.8557,-3.8587,-3.8506,-3.861,-3.863,-3.8673,-3.8694,-3.8638,-3.8765,-3.8776,-3.891,-3.8962,-3.8985,-3.901,-3.895,-3.9179,-3.9201,-3.9222,-3.9292,-3.932,-3.8979,-3.8978,-3.8977,-3.8976,0,-3.865,-3.8725,-3.8806,-3.8849,-3.8889,-3.8983,-3.8954,-3.8999,-3.8964,-3.8952,-3.906,-3.9071,-3.9124,-3.9154,-3.9121,-3.9283,-3.925,-3.9188,-3.9086,-3.9262,-3.9327,-3.9354,-3.8992,-3.8988,-3.8986,-3.8984,0,0,-3.8942,-3.8961,-3.8991,-3.9009,-3.9032,-3.9089,-3.9179,-3.9232,-3.9271,-3.9303,-3.9376,-3.9465,-3.9407,-3.9434,-3.9402,-3.9469,-3.9636,-3.9397,-3.9397,-3.9439,-3.9812,-3.9857,-3.9889,-3.9599,-3.9604,-3.9608,-3.9809,0,-3.9146,-3.9302,-3.9266,-3.9419,-3.9486,-3.9411,-3.9489,-3.9511,-3.9504,-3.9558,-3.9549,-3.9612,-3.9532,-3.9548,-3.961,-3.9602,-3.9709,-3.9588,-3.9664,-3.9667,-3.9657,-3.9923,-3.9971,-4.016,-3.9834,-3.9839,-3.9842,0,-3.9404,-3.9447,-3.9607,-3.9618,-3.9645,-3.9716,-3.9761,-3.9815,-3.9838,-3.9827,-3.9858,-3.9812,-3.99,-3.98,-3.9918,-3.9836,-3.9865,-3.9866,-3.9872,-3.9875,-3.9763,-3.9931,-4.022,-4.0247,-3.9882,-3.9879,-3.9876,0,-3.9598,-3.9695,-3.9803,-3.9821,-3.9837,-3.9888,-3.9897,-3.9915,-3.9949,-3.9988,-4.0009,-4.0058,-4.0085,-4.0123,-4.0091,-4.0022,-4.0214,-4.0111,-4.0205,-4.0206,-4.0247,-4.0244,-4.0541,-4.0271,-4.0271,-4.027,-4.0269,0,-3.9827,-3.9927,-3.9889,-3.9955,-4.0065,-4.0023,-4.0132,-4.0132,-4.0148,-4.0211,-4.015,-4.021,-4.0166,-4.0222,-4.0198,-4.0298,-4.0311,-4.0303,-4.0295,-4.0307,-4.0308,-4.0323,-4.0308,-4.0278,-4.0276,-4.0274,-4.0273,0,-4.006,-4.004,-4.0151,-4.0158,-4.0162,-4.0242,-4.0247,-4.0307,-4.0295,-4.0376,-4.0392,-4.0373,-4.0436,-4.0409,-4.0475,-4.0459,-4.0586,-4.0562,-4.0579,-4.0571,-4.0666,-4.0656,-4.0981,-4.102,-4.0728,-4.0731,-4.0733,0,-4.0207,-4.0282,-4.0297,-4.0336,-4.0349,-4.0412,-4.0446,-4.0408,-4.0446,-4.0478,-4.0534,-4.0592,-4.0635,-4.0739,-4.073,-4.078,-4.0755,-4.0866,-4.0762,-4.0771,-4.0753,-4.0748,-4.0753,-4.0885,-4.0889,-4.0891,-4.0894,0,-4.0468,-4.0454,-4.0507,-4.0556,-4.0599,-4.0635,-4.0666,-4.0701,-4.0664,-4.0709,-4.0773,-4.0808,-4.0875,-4.0933,-4.0977,-4.0984,-4.0932,-4.0927,-4.0951,-4.0962,-4.0967,-4.0963,-4.0632,-4.0919,-4.0916,-4.0915,-4.0913,-4.0912,-4.066,-4.0723,-4.0743,-4.0803,-4.0822,-4.0853,-4.0909,-4.0904,-4.0958,-4.101,-4.0984,-4.1058,-4.1078,-4.1132,-4.1146,-4.1202,-4.1158,-4.1194,-4.1202,-4.121,-4.1221,-4.0961,-4.121,-4.121,-4.1209,-4.1208,-4.1208,0,-4.0915,-4.0925,-4.0981,-4.1026,-4.1073,-4.1023,-4.1054,-4.1096,-4.1162,-4.1185,-4.123,-4.1303,-4.1358,-4.1354,-4.1404,-4.145,-4.1427,-4.1464,-4.1458,-4.146,-4.1259,-4.1232,-4.1481,-4.1481,-4.1481,-4.1481,-4.1481,-4.1481,-4.1054,-4.1156,-4.1144,-4.1255,-4.1263,-4.1336,-4.1358,-4.1384,-4.1402,-4.1487,-4.1533,-4.153,-4.1542,-4.1592,-4.164,-4.1637,-4.1657,-4.1703,-4.1691,-4.1502,-4.1475,-4.1449,-4.1423,-4.1708,-4.1709,-4.1887,-4.1888,-4.189]},{"header":{"parameterUnit":"m.s-1","parameterCategory":1,"la1":30.2991,"la2":30.254,"lo1":-89.0895,"lo2":-89.0444,"dy":0.0017,"dx":0.0017,"nx":28,"ny":28,"refTime":"2025-01-25T03:00:00:Z","depth":0,"parameterNumber":3,"parameterNumberName":"V-component_of_WINDS"},"data":[0,0,0,0,0,0,0,0,0,0,0,0,0,0,0,0,0,0,0,0,0,0,0,0,0,0,0,0,0,0,0,0,0,0,0,0,0,0,0,0,0,0,0,0,0,0,0,0,0,0,0,0,0,0,0,0,0,0,-1.6131,-1.6133,0,-1.6234,-1.6235,-1.6236,-1.6262,-1.6262,-1.6261,-1.626,-1.6365,-1.6368,-1.6371,0,0,0,0,0,0,0,0,0,0,0,0,0,-1.5956,-1.5959,-1.6131,-1.6133,-1.6134,-1.6234,-1.6235,-1.6237,-1.6262,-1.6262,-1.6261,-1.626,-1.6364,-1.6368,-1.6372,0,0,0,0,0,0,0,0,0,0,0,0,0,-1.6042,-1.596,-1.6131,-1.6159,-1.6162,-1.6234,-1.6235,-1.6237,-1.6263,-1.6262,-1.6261,-1.626,-1.6362,-1.6367,-1.6372,-1.6423,0,0,-1.6388,-1.639,0,0,0,0,0,0,0,0,-1.6037,-1.6049,-1.6153,-1.6157,-1.6161,-1.6234,-1.6212,-1.6299,-1.6263,-1.6224,-1.626,-1.6259,-1.6322,-1.633,-1.6352,-1.6428,-1.6432,-1.6388,-1.6391,-1.6393,-1.6395,0,0,0,0,0,0,0,-1.6031,-1.6045,-1.6172,-1.6155,-1.616,-1.6165,-1.6177,-1.6228,-1.6277,-1.6228,-1.623,-1.6242,-1.6324,-1.6347,-1.6354,-1.6434,-1.6388,-1.6393,-1.6396,-1.6398,-1.6555,-1.6556,0,0,0,0,0,0,-1.6021,-1.6039,-1.6169,-1.6175,-1.6096,-1.6169,-1.6182,-1.6212,-1.6277,-1.6286,-1.6242,-1.6243,-1.6339,-1.6348,-1.6358,-1.6421,-1.6393,-1.6398,-1.6401,-1.6554,-1.6556,-1.6557,0,0,0,0,0,0,-1.6017,-1.6032,-1.6165,-1.6108,-1.6125,-1.6173,-1.6207,-1.6214,-1.6237,-1.6288,-1.6297,-1.6257,-1.6338,-1.6351,-1.6406,-1.6425,-1.64,-1.6405,-1.6553,-1.6555,-1.6556,-1.6548,0,0,0,0,0,0,-1.6012,-1.6031,-1.6051,-1.6108,-1.6128,-1.6212,-1.6208,-1.6217,-1.6246,-1.6247,-1.6304,-1.6312,-1.6338,-1.6399,-1.6411,-1.6432,-1.6409,-1.6551,-1.6554,-1.6556,-1.6547,-1.6549,-1.6551,0,0,0,0,0,-1.6005,-1.6045,-1.6052,-1.6067,-1.6155,-1.6213,-1.6224,-1.6254,-1.6248,-1.6268,-1.63,-1.6311,-1.6421,-1.6404,-1.6419,-1.6441,-1.655,-1.6553,-1.6555,-1.6546,-1.6549,-1.6551,0,0,0,0,0,0,-1.5989,-1.6053,-1.6061,-1.6121,-1.6161,-1.6217,-1.6244,-1.6256,-1.6299,-1.6298,-1.6332,-1.6345,-1.6398,-1.6425,-1.6405,-1.6493,-1.6486,-1.6491,-1.6473,-1.6476,-1.6478,-1.6471,-1.6413,0,0,0,0,0,-1.5992,-1.6034,-1.6088,-1.6134,-1.6154,-1.6195,-1.6222,-1.6241,-1.6284,-1.6301,-1.6338,-1.6379,-1.6423,-1.6451,-1.6494,-1.655,-1.6563,-1.6573,-1.6575,-1.6576,-1.6581,-1.6611,-1.6616,-1.6565,-1.6565,-1.6565,0,0,-1.5999,-1.6039,-1.6064,-1.6132,-1.6166,-1.6208,-1.621,-1.6255,-1.6286,-1.6308,-1.6363,-1.639,-1.6439,-1.6494,-1.6521,-1.6518,-1.6597,-1.658,-1.658,-1.6584,-1.6614,-1.6619,-1.6623,-1.6567,-1.6567,-1.6566,0,0,-1.6033,-1.6068,-1.611,-1.6144,-1.6194,-1.6221,-1.6231,-1.6285,-1.6305,-1.636,-1.6377,-1.6414,-1.6489,-1.6523,-1.6549,-1.6594,-1.6605,-1.6607,-1.6619,-1.6648,-1.6652,-1.6656,-1.6671,-1.6676,-1.6611,-1.6611,-1.6611,0,-1.6035,-1.61,-1.6131,-1.6175,-1.6204,-1.6225,-1.6267,-1.6298,-1.636,-1.6379,-1.6376,-1.647,-1.6504,-1.6567,-1.6578,-1.6599,-1.6611,-1.6601,-1.6649,-1.6653,-1.6657,-1.6672,-1.6677,-1.6611,-1.6611,-1.6611,-1.6611,0,-1.61,-1.6144,-1.6172,-1.6232,-1.6264,-1.6307,-1.6343,-1.6371,-1.6387,-1.6414,-1.6469,-1.651,-1.6561,-1.6578,-1.6594,-1.6643,-1.664,-1.6642,-1.6636,-1.6661,-1.6676,-1.6682,-1.6611,-1.6611,-1.6611,-1.6611,0,0,-1.6128,-1.6202,-1.6212,-1.6238,-1.6295,-1.6329,-1.6373,-1.6423,-1.6446,-1.6488,-1.6524,-1.6587,-1.6589,-1.6619,-1.6639,-1.6664,-1.6696,-1.6664,-1.6665,-1.6668,-1.6751,-1.6749,-1.6755,-1.6703,-1.6705,-1.6706,-1.6747,0,-1.6169,-1.6247,-1.6275,-1.6339,-1.638,-1.64,-1.6437,-1.6476,-1.6501,-1.6539,-1.6568,-1.6611,-1.6611,-1.6629,-1.6656,-1.6687,-1.6713,-1.6684,-1.6737,-1.6738,-1.6724,-1.6763,-1.6761,-1.6798,-1.6753,-1.6754,-1.6755,0,-1.6227,-1.6269,-1.6337,-1.6387,-1.6406,-1.6439,-1.6486,-1.6522,-1.6566,-1.6583,-1.6615,-1.6633,-1.6678,-1.6668,-1.673,-1.671,-1.6733,-1.6751,-1.6753,-1.6759,-1.6748,-1.6769,-1.6811,-1.6816,-1.6764,-1.6763,-1.6763,0,-1.6239,-1.6313,-1.6363,-1.6385,-1.6445,-1.6468,-1.6494,-1.6536,-1.6564,-1.6605,-1.6623,-1.6669,-1.6694,-1.6729,-1.6758,-1.6748,-1.6816,-1.681,-1.6831,-1.683,-1.6845,-1.6843,-1.689,-1.686,-1.686,-1.686,-1.686,0,-1.6282,-1.6323,-1.6369,-1.64,-1.6446,-1.6477,-1.6521,-1.6548,-1.6585,-1.6621,-1.6641,-1.6674,-1.671,-1.6748,-1.6771,-1.6818,-1.6829,-1.6843,-1.6849,-1.6841,-1.6839,-1.6857,-1.6855,-1.6861,-1.6861,-1.6861,-1.686,0,-1.6304,-1.6337,-1.6392,-1.6444,-1.6458,-1.6489,-1.6533,-1.6563,-1.6589,-1.6634,-1.6647,-1.6688,-1.6732,-1.6765,-1.6823,-1.6838,-1.6888,-1.6894,-1.6874,-1.6877,-1.6896,-1.6893,-1.6955,-1.6964,-1.6928,-1.6929,-1.6929,0,-1.6329,-1.636,-1.6415,-1.6441,-1.6466,-1.6507,-1.6535,-1.6567,-1.6595,-1.6646,-1.6669,-1.6716,-1.6754,-1.6825,-1.686,-1.6904,-1.691,-1.6929,-1.6917,-1.6908,-1.691,-1.6907,-1.691,-1.693,-1.6931,-1.6931,-1.6931,0,-1.6369,-1.6383,-1.6424,-1.6469,-1.6502,-1.6539,-1.6577,-1.6596,-1.6634,-1.6665,-1.6711,-1.674,-1.6799,-1.6844,-1.6892,-1.6918,-1.693,-1.6934,-1.6941,-1.6934,-1.6921,-1.6928,-1.6878,-1.6933,-1.6933,-1.6933,-1.6932,-1.6932,-1.6393,-1.6422,-1.6464,-1.6508,-1.6539,-1.6573,-1.6604,-1.6633,-1.6672,-1.6723,-1.6738,-1.6786,-1.6827,-1.6891,-1.6918,-1.6955,-1.6954,-1.6965,-1.6967,-1.6969,-1.6969,-1.6915,-1.6964,-1.6964,-1.6964,-1.6964,-1.6964,0,-1.6434,-1.6462,-1.6502,-1.6553,-1.6587,-1.6596,-1.6637,-1.6665,-1.6707,-1.6744,-1.6781,-1.6833,-1.6877,-1.6914,-1.6959,-1.6982,-1.6988,-1.6992,-1.6991,-1.6997,-1.6967,-1.6956,-1.6986,-1.6986,-1.6986,-1.6986,-1.6986,-1.6986,-1.646,-1.6508,-1.6527,-1.659,-1.6618,-1.6665,-1.6688,-1.6719,-1.6749,-1.6806,-1.6842,-1.6866,-1.6903,-1.6951,-1.6991,-1.7001,-1.7016,-1.7018,-1.703,-1.7001,-1.6999,-1.6996,-1.6986,-1.7022,-1.7022,-1.7056,-1.7056,-1.7056]}]]